Darstellungsparameter: Aktuell verwendete Einstellungen:
Skalierung der Graphiken ... ?
xyx+y,   Skalierungsfaktor:      Skalierung: Modus: x, Faktor: 1
Darstellungszeitraum ... ?
Vom - - bis: - -   Zeitraum: 18.05.2022 - 18.05.2022
Min/Max/Avg-Anzeige ... ?
Zeige MMA aktuell
Zeige MMA Monat
Zeige MMA alles
Zeige --A aktuell
Zeige --A Monat
Zeige --A alles
Keine MMA-Anzeige
MMA:
Keine MMA-Graphiken
MMA-Basis: 18.05.2022 - 18.05.2022
Quicknavigation für Darstellung... ?
Tage:      1T, 2T, 3T, 5T -1T -2T -3T -5T +1T +2T +3T +5T
Wochen: 1W, 2W, 3W -1W -2W -3W +1W +2W +3W
Monate: 1M, 3M, 6M -1M -3M -6M +1M +3M +6M
Jahre:    1J, 3J, 5J, 10J -1J -3J -5J -10J +1J +3J +5J +10J
Nutze für die Darstellung ... ?
Originaldaten oder Mittelwerte auf ...
Stundenbasis Tagesbasis Wochenbasis
Monatsbasis Jahresbasis      Datenbasis: Original-Daten
Darstellen als:
Statistik (Auto) Statistik J:M      Darstellung:
Zur Graphik,    zurück zur Übersicht aller Sensoren.
 
Tabellarische Datenbersicht: ?
 
Sensor: Nr:Datum:Temp:Abs-Feuchte:Windchill:Wind:
Aussen-T/F 1 18-05-2022 00:00:00 16.7 C 11.65 g/m*3 16.7 C 0 km/h
2 18-05-2022 00:05:00 16.7 C 11.65 g/m*3 16.7 C 0 km/h
3 18-05-2022 00:10:00 16.6 C 11.58 g/m*3 16.6 C 0 km/h
4 18-05-2022 00:15:00 16.5 C 11.51 g/m*3 16.5 C 0 km/h
5 18-05-2022 00:20:00 16.4 C 11.45 g/m*3 16.4 C 0 km/h
6 18-05-2022 00:25:00 16.3 C 11.52 g/m*3 16.3 C 0 km/h
7 18-05-2022 00:30:00 16.2 C 11.45 g/m*3 16.2 C 0 km/h
8 18-05-2022 00:35:00 16.1 C 11.38 g/m*3 16.1 C 0 km/h
9 18-05-2022 00:40:00 15.9 C 11.38 g/m*3 15.9 C 0 km/h
10 18-05-2022 00:45:00 15.9 C 11.38 g/m*3 15.9 C 0 km/h
11 18-05-2022 00:50:00 15.9 C 11.38 g/m*3 15.9 C 3.2 km/h
12 18-05-2022 00:55:00 15.8 C 11.31 g/m*3 15.8 C 0 km/h
13 18-05-2022 01:00:00 15.8 C 11.44 g/m*3 15.8 C 0 km/h
14 18-05-2022 01:05:00 15.7 C 11.37 g/m*3 15.7 C 0 km/h
15 18-05-2022 01:10:00 15.7 C 11.37 g/m*3 15.7 C 0 km/h
16 18-05-2022 01:15:00 15.6 C 11.3 g/m*3 15.6 C 0 km/h
17 18-05-2022 01:20:00 15.5 C 11.37 g/m*3 15.5 C 0 km/h
18 18-05-2022 01:25:00 15.4 C 11.3 g/m*3 15.4 C 0 km/h
19 18-05-2022 01:30:00 15.3 C 11.23 g/m*3 15.3 C 0 km/h
20 18-05-2022 01:35:00 15.2 C 11.16 g/m*3 15.2 C 0 km/h
21 18-05-2022 01:40:00 15.2 C 11.29 g/m*3 15.2 C 0 km/h
22 18-05-2022 01:45:00 15.1 C 11.22 g/m*3 15.1 C 0 km/h
23 18-05-2022 01:50:00 15 C 11.16 g/m*3 15 C 0 km/h
24 18-05-2022 01:55:00 14.9 C 11.09 g/m*3 14.9 C 0 km/h
25 18-05-2022 02:00:00 14.9 C 11.09 g/m*3 14.9 C 0 km/h
Sensor: Nr:Datum:Temp:Abs-Feuchte:Windchill:Wind:
Aussen-T/F 26 18-05-2022 02:05:00 14.8 C 11.15 g/m*3 14.8 C 0 km/h
27 18-05-2022 02:10:00 14.8 C 11.15 g/m*3 14.8 C 0 km/h
28 18-05-2022 02:15:00 14.7 C 11.08 g/m*3 14.7 C 0 km/h
29 18-05-2022 02:20:00 14.7 C 11.08 g/m*3 14.7 C 0 km/h
30 18-05-2022 02:25:00 14.6 C 11.01 g/m*3 14.6 C 0 km/h
31 18-05-2022 02:30:00 14.6 C 11.01 g/m*3 14.6 C 0 km/h
32 18-05-2022 02:35:00 14.4 C 11 g/m*3 14.4 C 0 km/h
33 18-05-2022 02:40:00 14.4 C 11 g/m*3 14.4 C 0 km/h
34 18-05-2022 02:45:00 14.3 C 10.93 g/m*3 14.3 C 0 km/h
35 18-05-2022 02:50:00 14.3 C 10.93 g/m*3 14.3 C 0 km/h
36 18-05-2022 02:55:00 14.2 C 10.87 g/m*3 14.2 C 0 km/h
37 18-05-2022 03:00:00 14.1 C 10.8 g/m*3 14.1 C 0 km/h
38 18-05-2022 03:05:00 14.1 C 10.8 g/m*3 14.1 C 0 km/h
39 18-05-2022 03:10:00 14 C 10.86 g/m*3 14 C 0 km/h
40 18-05-2022 03:15:00 13.9 C 10.79 g/m*3 13.9 C 0 km/h
41 18-05-2022 03:20:00 13.8 C 10.72 g/m*3 13.8 C 0 km/h
42 18-05-2022 03:25:00 13.8 C 10.72 g/m*3 13.8 C 0 km/h
43 18-05-2022 03:30:00 13.7 C 10.66 g/m*3 13.7 C 0 km/h
44 18-05-2022 03:35:00 13.7 C 10.66 g/m*3 13.7 C 0 km/h
45 18-05-2022 03:40:00 13.6 C 10.71 g/m*3 13.6 C 0 km/h
46 18-05-2022 03:45:00 13.6 C 10.71 g/m*3 13.6 C 0 km/h
47 18-05-2022 03:50:00 13.6 C 10.71 g/m*3 13.6 C 0 km/h
48 18-05-2022 03:55:00 13.6 C 10.71 g/m*3 13.6 C 0 km/h
49 18-05-2022 04:00:00 13.7 C 10.78 g/m*3 13.7 C 0 km/h
50 18-05-2022 04:05:00 13.7 C 10.89 g/m*3 13.7 C 0 km/h
Sensor: Nr:Datum:Temp:Abs-Feuchte:Windchill:Wind:
Aussen-T/F 51 18-05-2022 04:10:00 13.6 C 10.83 g/m*3 13.6 C 0 km/h
52 18-05-2022 04:15:00 13.6 C 10.83 g/m*3 13.6 C 0 km/h
53 18-05-2022 04:20:00 13.5 C 10.76 g/m*3 13.5 C 0 km/h
54 18-05-2022 04:25:00 13.4 C 10.69 g/m*3 13.4 C 0 km/h
55 18-05-2022 04:30:00 13.4 C 10.58 g/m*3 13.4 C 0 km/h
56 18-05-2022 04:35:00 13.3 C 10.63 g/m*3 13.3 C 0 km/h
57 18-05-2022 04:40:00 13.3 C 10.63 g/m*3 13.3 C 0 km/h
58 18-05-2022 04:45:00 13.3 C 10.63 g/m*3 13.3 C 0 km/h
59 18-05-2022 04:50:00 13.3 C 10.63 g/m*3 13.3 C 0 km/h
60 18-05-2022 04:55:00 13.2 C 10.56 g/m*3 13.2 C 0 km/h
61 18-05-2022 05:00:00 13.2 C 10.56 g/m*3 13.2 C 0 km/h
62 18-05-2022 05:05:00 13.1 C 10.5 g/m*3 13.1 C 0 km/h
63 18-05-2022 05:10:00 13.1 C 10.5 g/m*3 13.1 C 0 km/h
64 18-05-2022 05:15:00 13.1 C 10.5 g/m*3 13.1 C 0 km/h
65 18-05-2022 05:20:00 13 C 10.43 g/m*3 13 C 0 km/h
66 18-05-2022 05:25:00 12.9 C 10.37 g/m*3 12.9 C 0 km/h
67 18-05-2022 05:30:00 12.8 C 10.3 g/m*3 12.8 C 0 km/h
68 18-05-2022 05:35:00 12.8 C 10.3 g/m*3 12.8 C 0 km/h
69 18-05-2022 05:40:00 12.7 C 10.24 g/m*3 12.7 C 0 km/h
70 18-05-2022 05:45:00 12.7 C 10.24 g/m*3 12.7 C 0 km/h
71 18-05-2022 05:50:00 12.7 C 10.24 g/m*3 12.7 C 0 km/h
72 18-05-2022 05:55:00 12.6 C 10.18 g/m*3 12.6 C 0 km/h
73 18-05-2022 06:00:00 12.6 C 10.29 g/m*3 12.6 C 0 km/h
74 18-05-2022 06:05:00 12.6 C 10.29 g/m*3 12.6 C 0 km/h
75 18-05-2022 06:10:00 12.5 C 10.22 g/m*3 12.5 C 0 km/h
Sensor: Nr:Datum:Temp:Abs-Feuchte:Windchill:Wind:
Aussen-T/F 76 18-05-2022 06:15:00 12.5 C 10.22 g/m*3 12.5 C 0 km/h
77 18-05-2022 06:20:00 12.5 C 10.22 g/m*3 12.5 C 0 km/h
78 18-05-2022 06:25:00 12.5 C 10.22 g/m*3 12.5 C 0 km/h
79 18-05-2022 06:30:00 12.5 C 10.22 g/m*3 12.5 C 0 km/h
80 18-05-2022 06:35:00 12.5 C 10.22 g/m*3 12.5 C 0 km/h
81 18-05-2022 06:40:00 12.6 C 10.29 g/m*3 12.6 C 0 km/h
82 18-05-2022 06:45:00 12.6 C 10.4 g/m*3 12.6 C 0 km/h
83 18-05-2022 06:50:00 12.7 C 10.46 g/m*3 12.7 C 0 km/h
84 18-05-2022 06:55:00 12.8 C 10.53 g/m*3 12.8 C 0 km/h
85 18-05-2022 07:00:00 12.9 C 10.59 g/m*3 12.9 C 0 km/h
86 18-05-2022 07:05:00 13.1 C 10.73 g/m*3 13.1 C 0 km/h
87 18-05-2022 07:10:00 13.2 C 10.91 g/m*3 13.2 C 0 km/h
88 18-05-2022 07:15:00 13.3 C 10.98 g/m*3 13.3 C 0 km/h
89 18-05-2022 07:20:00 13.4 C 11.04 g/m*3 13.4 C 0 km/h
90 18-05-2022 07:25:00 13.6 C 11.18 g/m*3 13.6 C 0 km/h
91 18-05-2022 07:30:00 13.6 C 11.18 g/m*3 13.6 C 0 km/h
92 18-05-2022 07:35:00 13.7 C 11.25 g/m*3 13.7 C 0 km/h
93 18-05-2022 07:40:00 13.8 C 11.32 g/m*3 13.8 C 0 km/h
94 18-05-2022 07:45:00 13.9 C 11.39 g/m*3 13.9 C 1.6 km/h
95 18-05-2022 07:50:00 14 C 11.46 g/m*3 14 C 0 km/h
96 18-05-2022 07:55:00 14.1 C 11.53 g/m*3 14.1 C 0 km/h
97 18-05-2022 08:00:00 14.2 C 11.6 g/m*3 14.2 C 0 km/h
98 18-05-2022 08:05:00 14.3 C 11.67 g/m*3 14.3 C 0 km/h
99 18-05-2022 08:10:00 14.4 C 11.74 g/m*3 14.4 C 0 km/h
100 18-05-2022 08:15:00 14.5 C 11.82 g/m*3 14.5 C 0 km/h
Sensor: Nr:Datum:Temp:Abs-Feuchte:Windchill:Wind:
Aussen-T/F 101 18-05-2022 08:20:00 14.6 C 11.89 g/m*3 14.6 C 0 km/h
102 18-05-2022 08:25:00 14.7 C 11.96 g/m*3 14.7 C 0 km/h
103 18-05-2022 08:30:00 14.9 C 12.11 g/m*3 14.9 C 0 km/h
104 18-05-2022 08:35:00 15 C 12.18 g/m*3 15 C 0 km/h
105 18-05-2022 08:40:00 15.1 C 12.26 g/m*3 15.1 C 0 km/h
106 18-05-2022 08:45:00 15.2 C 12.33 g/m*3 15.2 C 0 km/h
107 18-05-2022 08:50:00 15.3 C 12.41 g/m*3 15.3 C 0 km/h
108 18-05-2022 08:55:00 15.4 C 12.48 g/m*3 15.4 C 0 km/h
109 18-05-2022 09:00:00 15.5 C 12.56 g/m*3 15.5 C 0 km/h
110 18-05-2022 09:05:00 15.6 C 12.63 g/m*3 15.6 C 0 km/h
111 18-05-2022 09:10:00 15.7 C 12.71 g/m*3 15.7 C 0 km/h
112 18-05-2022 09:15:00 15.9 C 12.87 g/m*3 15.9 C 0 km/h
113 18-05-2022 09:20:00 16.1 C 13.02 g/m*3 16.1 C 0 km/h
114 18-05-2022 09:25:00 16.3 C 13.18 g/m*3 16.3 C 0 km/h
115 18-05-2022 09:30:00 16.4 C 13.12 g/m*3 16.4 C 0 km/h
116 18-05-2022 09:35:00 16.6 C 13.28 g/m*3 16.6 C 0 km/h
117 18-05-2022 09:40:00 16.7 C 13.36 g/m*3 16.7 C 0 km/h
118 18-05-2022 09:45:00 16.9 C 13.52 g/m*3 16.9 C 0 km/h
119 18-05-2022 09:50:00 17.1 C 13.68 g/m*3 17.1 C 0 km/h
120 18-05-2022 09:55:00 17.2 C 13.62 g/m*3 17.2 C 0 km/h
121 18-05-2022 10:00:00 17.4 C 13.78 g/m*3 17.4 C 0 km/h
122 18-05-2022 10:05:00 17.7 C 14.03 g/m*3 17.7 C 0 km/h
123 18-05-2022 10:10:00 18 C 14.28 g/m*3 18 C 3.2 km/h
124 18-05-2022 10:15:00 18.3 C 14.23 g/m*3 18.3 C 3.2 km/h
125 18-05-2022 10:20:00 18.6 C 14.48 g/m*3 18.6 C 0 km/h
Sensor: Nr:Datum:Temp:Abs-Feuchte:Windchill:Wind:
Aussen-T/F 126 18-05-2022 10:25:00 18.8 C 14.49 g/m*3 18.8 C 1.6 km/h
127 18-05-2022 10:30:00 19.1 C 14.59 g/m*3 19.1 C 1.6 km/h
128 18-05-2022 10:35:00 19.4 C 14.85 g/m*3 19.4 C 1.6 km/h
129 18-05-2022 10:40:00 19.8 C 15.03 g/m*3 19.8 C 1.6 km/h
130 18-05-2022 10:45:00 20.1 C 15.12 g/m*3 20.1 C 0 km/h
131 18-05-2022 10:50:00 20.4 C 15.21 g/m*3 20.4 C 0 km/h
132 18-05-2022 10:55:00 20.8 C 14.49 g/m*3 20.8 C 1.6 km/h
133 18-05-2022 11:00:00 21.3 C 15.1 g/m*3 21.3 C 1.6 km/h
134 18-05-2022 11:05:00 21.8 C 14.39 g/m*3 21.8 C 0 km/h
135 18-05-2022 11:10:00 22.6 C 14.06 g/m*3 22.6 C 3.2 km/h
136 18-05-2022 11:15:00 23.3 C 14.43 g/m*3 23.3 C 4.8 km/h
137 18-05-2022 11:20:00 24.1 C 14.66 g/m*3 24.1 C 3.2 km/h
138 18-05-2022 11:25:00 24.5 C 13.88 g/m*3 24.5 C 1.6 km/h
139 18-05-2022 11:30:00 24.9 C 13.96 g/m*3 24.9 C 4.8 km/h
140 18-05-2022 11:35:00 25.4 C 14.13 g/m*3 25.4 C 4.8 km/h
141 18-05-2022 11:40:00 25.9 C 15.01 g/m*3 25.9 C 8.1 km/h
142 18-05-2022 11:45:00 26.2 C 13.79 g/m*3 26.2 C 8.1 km/h
143 18-05-2022 11:50:00 26.4 C 13.69 g/m*3 26.4 C 4.8 km/h
144 18-05-2022 11:55:00 26.7 C 13.67 g/m*3 26.7 C 3.2 km/h
145 18-05-2022 12:00:00 26.9 C 14.08 g/m*3 26.9 C 3.2 km/h
146 18-05-2022 12:05:00 27.1 C 13.72 g/m*3 27.1 C 3.2 km/h
147 18-05-2022 12:10:00 27.3 C 13.87 g/m*3 27.3 C 6.4 km/h
148 18-05-2022 12:15:00 27.4 C 13.42 g/m*3 27.4 C 6.4 km/h
149 18-05-2022 12:20:00 27.6 C 12.77 g/m*3 27.6 C 6.4 km/h
150 18-05-2022 12:25:00 27.8 C 12.64 g/m*3 27.8 C 3.2 km/h
Sensor: Nr:Datum:Temp:Abs-Feuchte:Windchill:Wind:
Aussen-T/F 151 18-05-2022 12:30:00 28 C 13.6 g/m*3 28 C 4.8 km/h
152 18-05-2022 12:35:00 28.1 C 12.58 g/m*3 28.1 C 3.2 km/h
153 18-05-2022 12:40:00 28.2 C 12.65 g/m*3 28.2 C 4.8 km/h
154 18-05-2022 12:45:00 28.3 C 13.55 g/m*3 28.3 C 8.1 km/h
155 18-05-2022 12:50:00 28.4 C 12.23 g/m*3 28.4 C 6.4 km/h
156 18-05-2022 12:55:00 28.6 C 12.37 g/m*3 28.6 C 11.3 km/h
157 18-05-2022 13:00:00 28.7 C 12.72 g/m*3 28.7 C 11.3 km/h
158 18-05-2022 13:05:00 28.7 C 12.43 g/m*3 28.7 C 9.7 km/h
159 18-05-2022 13:10:00 28.9 C 12 g/m*3 28.9 C 9.7 km/h
160 18-05-2022 13:15:00 29 C 11.78 g/m*3 29 C 9.7 km/h
161 18-05-2022 13:20:00 29 C 11.78 g/m*3 29 C 9.7 km/h
162 18-05-2022 13:25:00 29 C 11.78 g/m*3 29 C 17.7 km/h
163 18-05-2022 13:30:00 29.1 C 11.84 g/m*3 29.1 C 8.1 km/h
164 18-05-2022 13:35:00 29.2 C 11.91 g/m*3 29.2 C 6.4 km/h
165 18-05-2022 13:40:00 29.2 C 11.61 g/m*3 29.2 C 8.1 km/h
166 18-05-2022 13:45:00 29.1 C 11.84 g/m*3 29.1 C 16.1 km/h
167 18-05-2022 13:50:00 29.1 C 11.84 g/m*3 29.1 C 12.9 km/h
168 18-05-2022 13:55:00 29.1 C 11.26 g/m*3 29.1 C 9.7 km/h
169 18-05-2022 14:00:00 29.3 C 11.97 g/m*3 29.3 C 9.7 km/h
170 18-05-2022 14:05:00 29.4 C 11.45 g/m*3 29.4 C 9.7 km/h
171 18-05-2022 14:10:00 29.5 C 11.51 g/m*3 29.5 C 8.1 km/h
172 18-05-2022 14:15:00 29.6 C 12.76 g/m*3 29.6 C 12.9 km/h
173 18-05-2022 14:20:00 29.8 C 12 g/m*3 29.8 C 3.2 km/h
174 18-05-2022 14:25:00 29.9 C 12.37 g/m*3 29.9 C 4.8 km/h
175 18-05-2022 14:30:00 29.9 C 11.76 g/m*3 29.9 C 12.9 km/h
Sensor: Nr:Datum:Temp:Abs-Feuchte:Windchill:Wind:
Aussen-T/F 176 18-05-2022 14:35:00 29.8 C 11.7 g/m*3 29.8 C 14.5 km/h
177 18-05-2022 14:40:00 29.7 C 12.23 g/m*3 29.7 C 16.1 km/h
178 18-05-2022 14:45:00 29.8 C 12.3 g/m*3 29.8 C 6.4 km/h
179 18-05-2022 14:50:00 29.9 C 12.37 g/m*3 29.9 C 8.1 km/h
180 18-05-2022 14:55:00 30.1 C 11.28 g/m*3 30.1 C 12.9 km/h
181 18-05-2022 15:00:00 29.9 C 11.46 g/m*3 29.9 C 11.3 km/h
182 18-05-2022 15:05:00 29.8 C 11.4 g/m*3 29.8 C 12.9 km/h
183 18-05-2022 15:10:00 30 C 11.83 g/m*3 30 C 6.4 km/h
184 18-05-2022 15:15:00 30.3 C 11.71 g/m*3 30.3 C 8.1 km/h
185 18-05-2022 15:20:00 30.5 C 10.9 g/m*3 30.5 C 16.1 km/h
186 18-05-2022 15:25:00 30.4 C 10.85 g/m*3 30.4 C 17.7 km/h
187 18-05-2022 15:30:00 30.4 C 11.77 g/m*3 30.4 C 8.1 km/h
188 18-05-2022 15:35:00 30.6 C 11.9 g/m*3 30.6 C 3.2 km/h
189 18-05-2022 15:40:00 30.9 C 12.1 g/m*3 30.9 C 6.4 km/h
190 18-05-2022 15:45:00 31.1 C 11.9 g/m*3 31.1 C 8.1 km/h
191 18-05-2022 15:50:00 31.2 C 11.65 g/m*3 31.2 C 12.9 km/h
192 18-05-2022 15:55:00 31.3 C 11.71 g/m*3 31.3 C 8.1 km/h
193 18-05-2022 16:00:00 30.9 C 10.82 g/m*3 30.9 C 11.3 km/h
194 18-05-2022 16:05:00 30.7 C 11.02 g/m*3 30.7 C 9.7 km/h
195 18-05-2022 16:10:00 30.8 C 11.4 g/m*3 30.8 C 9.7 km/h
196 18-05-2022 16:15:00 30.9 C 11.14 g/m*3 30.9 C 6.4 km/h
197 18-05-2022 16:20:00 30.9 C 11.78 g/m*3 30.9 C 8.1 km/h
198 18-05-2022 16:25:00 31.1 C 11.58 g/m*3 31.1 C 9.7 km/h
199 18-05-2022 16:30:00 31.3 C 11.71 g/m*3 31.3 C 12.9 km/h
200 18-05-2022 16:35:00 31.1 C 11.9 g/m*3 31.1 C 12.9 km/h
Sensor: Nr:Datum:Temp:Abs-Feuchte:Windchill:Wind:
Aussen-T/F 201 18-05-2022 16:40:00 31.2 C 10.67 g/m*3 31.2 C 8.1 km/h
202 18-05-2022 16:45:00 31.3 C 11.06 g/m*3 31.3 C 6.4 km/h
203 18-05-2022 16:50:00 31.5 C 11.18 g/m*3 31.5 C 4.8 km/h
204 18-05-2022 16:55:00 31.7 C 11.63 g/m*3 31.7 C 6.4 km/h
205 18-05-2022 17:00:00 31.9 C 11.75 g/m*3 31.9 C 4.8 km/h
206 18-05-2022 17:05:00 32 C 10.8 g/m*3 32 C 4.8 km/h
207 18-05-2022 17:10:00 31.8 C 11.02 g/m*3 31.8 C 4.8 km/h
208 18-05-2022 17:15:00 31.8 C 11.36 g/m*3 31.8 C 4.8 km/h
209 18-05-2022 17:20:00 31.8 C 11.69 g/m*3 31.8 C 9.7 km/h
210 18-05-2022 17:25:00 31.9 C 11.42 g/m*3 31.9 C 8.1 km/h
211 18-05-2022 17:30:00 31.9 C 11.08 g/m*3 31.9 C 14.5 km/h
212 18-05-2022 17:35:00 31.6 C 11.24 g/m*3 31.6 C 12.9 km/h
213 18-05-2022 17:40:00 31.6 C 11.24 g/m*3 31.6 C 9.7 km/h
214 18-05-2022 17:45:00 31.6 C 11.24 g/m*3 31.6 C 9.7 km/h
215 18-05-2022 17:50:00 31.4 C 10.79 g/m*3 31.4 C 8.1 km/h
216 18-05-2022 17:55:00 31.2 C 11.32 g/m*3 31.2 C 11.3 km/h
217 18-05-2022 18:00:00 31.1 C 10.62 g/m*3 31.1 C 9.7 km/h
218 18-05-2022 18:05:00 30.8 C 11.08 g/m*3 30.8 C 11.3 km/h
219 18-05-2022 18:10:00 30.6 C 10.96 g/m*3 30.6 C 11.3 km/h
220 18-05-2022 18:15:00 30.7 C 10.71 g/m*3 30.7 C 8.1 km/h
221 18-05-2022 18:20:00 30.6 C 11.28 g/m*3 30.6 C 8.1 km/h
222 18-05-2022 18:25:00 30.5 C 11.22 g/m*3 30.5 C 4.8 km/h
223 18-05-2022 18:30:00 30.4 C 11.47 g/m*3 30.4 C 1.6 km/h
224 18-05-2022 18:35:00 30.3 C 13.25 g/m*3 30.3 C 1.6 km/h
225 18-05-2022 18:40:00 30.1 C 12.81 g/m*3 30.1 C 3.2 km/h
Sensor: Nr:Datum:Temp:Abs-Feuchte:Windchill:Wind:
Aussen-T/F 226 18-05-2022 18:45:00 29.9 C 13.27 g/m*3 29.9 C 1.6 km/h
227 18-05-2022 18:50:00 29.7 C 12.23 g/m*3 29.7 C 3.2 km/h
228 18-05-2022 18:55:00 29.7 C 11.34 g/m*3 29.7 C 8.1 km/h
229 18-05-2022 19:00:00 29.4 C 11.45 g/m*3 29.4 C 3.2 km/h
230 18-05-2022 19:05:00 29.3 C 13.43 g/m*3 29.3 C 1.6 km/h
231 18-05-2022 19:10:00 29.1 C 13 g/m*3 29.1 C 4.8 km/h
232 18-05-2022 19:15:00 28.9 C 14.28 g/m*3 28.9 C 0 km/h
233 18-05-2022 19:20:00 28.6 C 14.05 g/m*3 28.6 C 3.2 km/h
234 18-05-2022 19:25:00 28.2 C 13.75 g/m*3 28.2 C 1.6 km/h
235 18-05-2022 19:30:00 28 C 13.6 g/m*3 28 C 0 km/h
236 18-05-2022 19:35:00 27.8 C 13.99 g/m*3 27.8 C 1.6 km/h
237 18-05-2022 19:40:00 27.6 C 13.57 g/m*3 27.6 C 3.2 km/h
238 18-05-2022 19:45:00 27.6 C 14.1 g/m*3 27.6 C 1.6 km/h
239 18-05-2022 19:50:00 27.4 C 13.68 g/m*3 27.4 C 1.6 km/h
240 18-05-2022 19:55:00 27.3 C 13.61 g/m*3 27.3 C 0 km/h
241 18-05-2022 20:00:00 27 C 13.13 g/m*3 27 C 1.6 km/h
242 18-05-2022 20:05:00 26.8 C 13.49 g/m*3 26.8 C 0 km/h
243 18-05-2022 20:10:00 26.6 C 13.34 g/m*3 26.6 C 0 km/h
244 18-05-2022 20:15:00 26.2 C 13.29 g/m*3 26.2 C 3.2 km/h
245 18-05-2022 20:20:00 25.9 C 13.32 g/m*3 25.9 C 3.2 km/h
246 18-05-2022 20:25:00 25.5 C 13.02 g/m*3 25.5 C 1.6 km/h
247 18-05-2022 20:30:00 25.1 C 12.96 g/m*3 25.1 C 0 km/h
248 18-05-2022 20:35:00 24.7 C 12.68 g/m*3 24.7 C 1.6 km/h
249 18-05-2022 20:40:00 24.3 C 12.61 g/m*3 24.3 C 3.2 km/h
250 18-05-2022 20:45:00 23.9 C 12.55 g/m*3 23.9 C 1.6 km/h
Sensor: Nr:Datum:Temp:Abs-Feuchte:Windchill:Wind:
Aussen-T/F 251 18-05-2022 20:50:00 23.5 C 12.27 g/m*3 23.5 C 3.2 km/h
252 18-05-2022 20:55:00 23.2 C 12.47 g/m*3 23.2 C 1.6 km/h
253 18-05-2022 21:00:00 22.8 C 12.19 g/m*3 22.8 C 3.2 km/h
254 18-05-2022 21:05:00 22.4 C 12.11 g/m*3 22.4 C 1.6 km/h
255 18-05-2022 21:10:00 22.1 C 12.1 g/m*3 22.1 C 0 km/h
256 18-05-2022 21:15:00 21.8 C 12.09 g/m*3 21.8 C 1.6 km/h
257 18-05-2022 21:20:00 21.5 C 12.07 g/m*3 21.5 C 3.2 km/h
258 18-05-2022 21:25:00 21.2 C 11.86 g/m*3 21.2 C 4.8 km/h
259 18-05-2022 21:30:00 20.9 C 11.66 g/m*3 20.9 C 4.8 km/h
260 18-05-2022 21:35:00 20.7 C 11.7 g/m*3 20.7 C 3.2 km/h
261 18-05-2022 21:40:00 20.6 C 11.63 g/m*3 20.6 C 3.2 km/h
262 18-05-2022 21:45:00 20.3 C 11.61 g/m*3 20.3 C 4.8 km/h
263 18-05-2022 21:50:00 20.2 C 11.54 g/m*3 20.2 C 4.8 km/h
264 18-05-2022 21:55:00 20.1 C 11.47 g/m*3 20.1 C 3.2 km/h
265 18-05-2022 22:00:00 19.9 C 11.51 g/m*3 19.9 C 1.6 km/h
266 18-05-2022 22:05:00 19.9 C 11.51 g/m*3 19.9 C 1.6 km/h
267 18-05-2022 22:10:00 19.8 C 11.44 g/m*3 19.8 C 0 km/h
268 18-05-2022 22:15:00 19.7 C 11.38 g/m*3 19.7 C 3.2 km/h
269 18-05-2022 22:20:00 19.7 C 11.55 g/m*3 19.7 C 1.6 km/h
270 18-05-2022 22:25:00 19.6 C 11.48 g/m*3 19.6 C 3.2 km/h
271 18-05-2022 22:30:00 19.5 C 11.58 g/m*3 19.5 C 0 km/h
272 18-05-2022 22:35:00 19.4 C 11.51 g/m*3 19.4 C 0 km/h
273 18-05-2022 22:40:00 19.3 C 11.44 g/m*3 19.3 C 0 km/h
274 18-05-2022 22:45:00 19.2 C 11.54 g/m*3 19.2 C 0 km/h
275 18-05-2022 22:50:00 19.1 C 11.64 g/m*3 19.1 C 1.6 km/h
Sensor: Nr:Datum:Temp:Abs-Feuchte:Windchill:Wind:
Aussen-T/F 276 18-05-2022 22:55:00 18.9 C 11.5 g/m*3 18.9 C 0 km/h
277 18-05-2022 23:00:00 18.8 C 11.6 g/m*3 18.8 C 0 km/h
278 18-05-2022 23:05:00 18.7 C 11.53 g/m*3 18.7 C 0 km/h
279 18-05-2022 23:10:00 18.6 C 11.62 g/m*3 18.6 C 0 km/h
280 18-05-2022 23:15:00 18.5 C 11.71 g/m*3 18.5 C 0 km/h
281 18-05-2022 23:20:00 18.4 C 11.64 g/m*3 18.4 C 0 km/h
282 18-05-2022 23:25:00 18.3 C 11.57 g/m*3 18.3 C 0 km/h
283 18-05-2022 23:30:00 18.3 C 11.73 g/m*3 18.3 C 0 km/h
284 18-05-2022 23:35:00 18.2 C 11.66 g/m*3 18.2 C 0 km/h
285 18-05-2022 23:40:00 18.1 C 11.74 g/m*3 18.1 C 0 km/h
286 18-05-2022 23:45:00 18.1 C 11.74 g/m*3 18.1 C 0 km/h
287 18-05-2022 23:50:00 18.1 C 11.74 g/m*3 18.1 C 0 km/h
288 18-05-2022 23:55:00 18 C 11.67 g/m*3 18 C 0 km/h

Legende:
   Min
   Max


Maximal/Minimal-Werte vom 18.05.2022 - 18.05.2022

Sensor Min Max Avg
Temp
(Aussen-T/F)
12.5 °C
18-05-2022  06:10:00
32 °C
18-05-2022  17:05:00
21.24 °C
Abs-Feuchte
(Aussen-T/F)
10.18 g/m*3
18-05-2022  05:55:00
15.21 g/m*3
18-05-2022  10:50:00
11.85 g/m*3
Windchill
(Aussen-T/F)
12.5 C
18-05-2022  06:10:00
32 C
18-05-2022  17:05:00
21.17 C

Die Daten stammen von einer Davis Vantage Pro 2 Wetter-Station und werden unter Linux mit der Software wview2wettercgi und aufbereitet. Alle Angaben erfolgen ohne Gewähr für ihre Vollständigkeit oder Richtigkeit.
Kontakt: Rainer Krienke krienke@uni-koblenz.de . Meine Webseiten an der Uni Koblenz oder privat.
Version: $Revision: 0.78 $